| time (UTC) | temp F | wind direction | speed MPH | gust MPH | rain 1hr in | rain 24hr in | rain mn in | humidity % | barometer mb |
| 20260901014559 | 87 | 173 | 0.0 | 3.0 | 0.00 | 0.00 | 0.00 | 77 | 1013.6 |
| 20260901013102 | 88 | 163 | 0.0 | 5.0 | 0.00 | 0.00 | 0.00 | 77 | 1013.6 |
| 20260901011556 | 88 | 153 | 0.0 | 5.0 | 0.00 | 0.00 | 0.00 | 77 | 1013.6 |
| 20260901010057 | 89 | 153 | 2.0 | 4.0 | 0.00 | 0.00 | 0.00 | 75 | 1013.7 |
| 20260901004558 | 91 | 155 | 0.0 | 3.0 | 0.00 | 0.00 | 0.00 | 73 | 1013.5 |
| 20260901003001 | 92 | 163 | 0.0 | 2.0 | 0.00 | 0.00 | 0.00 | 72 | 1013.5 |
| 20260901001607 | 92 | 157 | 0.0 | 3.0 | 0.00 | 0.00 | 0.00 | 69 | 1013.6 |
| 20260901000012 | 93 | 102 | 0.0 | 3.0 | 0.00 | 0.00 | 0.00 | 65 | 1013.6 |
| 20260831234606 | 93 | 119 | 0.0 | 3.0 | 0.00 | 0.00 | 0.00 | 63 | 1013.6 |
| 20260831233101 | 94 | 120 | 1.0 | 4.0 | 0.00 | 0.00 | 0.00 | 61 | 1013.6 |
| 20260831231501 | 95 | 63 | 2.0 | 6.0 | 0.00 | 0.00 | 0.00 | 57 | 1013.3 |
| 20260831230138 | 96 | 86 | 1.0 | 6.0 | 0.00 | 0.00 | 0.00 | 56 | 1013.4 |
| 20260831230002 | 96 | 107 | 1.0 | 6.0 | 0.00 | 0.00 | 0.00 | 58 | 1013.4 |
| 20260831224611 | 96 | 49 | 1.0 | 5.0 | 0.00 | 0.00 | 0.00 | 57 | 1013.5 |
| 20260831223102 | 95 | 53 | 1.0 | 4.0 | 0.00 | 0.00 | 0.00 | 58 | 1013.7 |
| 20260831221627 | 95 | 167 | 1.0 | 6.0 | 0.00 | 0.00 | 0.00 | 60 | 1013.7 |
| 20260831220003 | 95 | 84 | 1.0 | 7.0 | 0.00 | 0.00 | 0.00 | 62 | 1013.7 |
| 20260831214600 | 96 | 62 | 1.0 | 6.0 | 0.00 | 0.00 | 0.00 | 62 | 1013.9 |
| 20260831211614 | 97 | 85 | 0.0 | 3.0 | 0.00 | 0.00 | 0.00 | 62 | 1014.0 |
| 20260831211501 | 97 | 85 | 0.0 | 3.0 | 0.00 | 0.00 | 0.00 | 62 | 1014.0 |
| 20260831210005 | 97 | 69 | 0.0 | 6.0 | 0.00 | 0.00 | 0.00 | 61 | 1014.2 |
| 20260831204600 | 96 | 67 | 1.0 | 7.0 | 0.00 | 0.00 | 0.00 | 61 | 1014.3 |
| 20260831203059 | 96 | 63 | 1.0 | 9.0 | 0.00 | 0.00 | 0.00 | 62 | 1014.5 |
| 20260831200100 | 97 | 48 | 1.0 | 3.0 | 0.00 | 0.00 | 0.00 | 59 | 1014.7 |
| 20260831200002 | 97 | 60 | 0.0 | 3.0 | 0.00 | 0.00 | 0.00 | 60 | 1014.7 |
| 20260831194658 | 97 | 61 | 0.0 | 6.0 | 0.00 | 0.00 | 0.00 | 60 | 1014.9 |
| 20260831193101 | 97 | 148 | 1.0 | 5.0 | 0.00 | 0.00 | 0.00 | 62 | 1015.1 |
| 20260831191501 | 96 | 65 | 0.0 | 4.0 | 0.00 | 0.00 | 0.00 | 60 | 1015.3 |
| 20260831190108 | 95 | 300 | 1.0 | 4.0 | 0.00 | 0.00 | 0.00 | 60 | 1015.5 |
| 20260831184613 | 95 | 332 | 0.0 | 3.0 | 0.00 | 0.00 | 0.00 | 63 | 1015.8 |
| 20260831183100 | 95 | 65 | 1.0 | 5.0 | 0.00 | 0.00 | 0.00 | 60 | 1015.7 |
| 20260831181600 | 95 | 173 | 0.0 | 2.0 | 0.00 | 0.00 | 0.00 | 63 | 1015.9 |
| 20260831181502 | 95 | 174 | 0.0 | 2.0 | 0.00 | 0.00 | 0.00 | 63 | 1016.0 |
| 20260831180100 | 94 | 188 | 0.0 | 4.0 | 0.00 | 0.00 | 0.00 | 62 | 1016.3 |
| 20260831174604 | 95 | 84 | 0.0 | 4.0 | 0.00 | 0.00 | 0.00 | 63 | 1016.5 |
| 20260831173100 | 94 | 68 | 0.0 | 4.0 | 0.00 | 0.00 | 0.00 | 64 | 1016.7 |
| 20260831171602 | 93 | 161 | 0.0 | 3.0 | 0.00 | 0.00 | 0.00 | 68 | 1016.7 |
| 20260831170130 | 93 | 159 | 0.0 | 3.0 | 0.00 | 0.00 | 0.00 | 68 | 1016.9 |
| 20260831170002 | 93 | 159 | 0.0 | 4.0 | 0.00 | 0.00 | 0.00 | 68 | 1016.9 |
| 20260831164600 | 92 | 92 | 0.0 | 3.0 | 0.00 | 0.00 | 0.00 | 69 | 1016.8 |
| 20260831163059 | 91 | 175 | 1.0 | 3.0 | 0.00 | 0.00 | 0.00 | 73 | 1016.9 |
| 20260831161613 | 90 | 175 | 0.0 | 3.0 | 0.00 | 0.00 | 0.00 | 73 | 1016.9 |
| 20260831160059 | 90 | 175 | 0.0 | 3.0 | 0.00 | 0.00 | 0.00 | 75 | 1017.2 |
| 20260831154615 | 89 | 175 | 0.0 | 3.0 | 0.00 | 0.00 | 0.00 | 75 | 1017.0 |
| 20260831153057 | 89 | 175 | 0.0 | 2.0 | 0.00 | 0.00 | 0.00 | 78 | 1016.9 |
| 20260831151557 | 87 | 175 | 0.0 | 3.0 | 0.00 | 0.00 | 0.00 | 82 | 1016.9 |
| 20260831150056 | 87 | 175 | 1.0 | 4.0 | 0.00 | 0.00 | 0.00 | 83 | 1016.9 |
| 20260831144559 | 87 | 155 | 1.0 | 2.0 | 0.00 | 0.00 | 0.00 | 85 | 1016.7 |
| 20260831143059 | 86 | 155 | 0.0 | 3.0 | 0.00 | 0.00 | 0.00 | 87 | 1016.5 |
| 20260831141601 | 85 | 155 | 0.0 | 2.0 | 0.00 | 0.00 | 0.00 | 87 | 1016.6 |
| 20260831140059 | 84 | 155 | 0.0 | 0.0 | 0.00 | 0.00 | 0.00 | 89 | 1016.5 |
| 20260831140001 | 84 | 155 | 0.0 | 0.0 | 0.00 | 0.00 | 0.00 | 89 | 1016.5 |
| 20260831134600 | 84 | 155 | 0.0 | 0.0 | 0.00 | 0.00 | 0.00 | 89 | 1016.4 |
| 20260831133100 | 82 | 155 | 0.0 | 2.0 | 0.00 | 0.00 | 0.00 | 90 | 1016.3 |
| 20260831131558 | 81 | 155 | 0.0 | 0.0 | 0.00 | 0.00 | 0.00 | 92 | 1016.3 |
| 20260831130057 | 80 | 155 | 0.0 | 0.0 | 0.00 | 0.00 | 0.00 | 92 | 1016.1 |
| 20260831124559 | 79 | 155 | 0.0 | 0.0 | 0.00 | 0.00 | 0.00 | 92 | 1016.0 |
| 20260831123059 | 79 | 155 | 0.0 | 0.0 | 0.00 | 0.00 | 0.00 | 92 | 1015.6 |
| 20260831121559 | 79 | 155 | 0.0 | 0.0 | 0.00 | 0.00 | 0.00 | 92 | 1015.5 |
| 20260831120100 | 79 | 155 | 0.0 | 0.0 | 0.00 | 0.00 | 0.00 | 92 | 1015.1 |
| 20260831120001 | 79 | 155 | 0.0 | 0.0 | 0.00 | 0.00 | 0.00 | 92 | 1015.1 |
| 20260831114559 | 79 | 155 | 0.0 | 0.0 | 0.00 | 0.00 | 0.00 | 92 | 1015.2 |
| 20260831113102 | 79 | 155 | 0.0 | 0.0 | 0.00 | 0.00 | 0.00 | 91 | 1015.2 |
| 20260831111609 | 79 | 155 | 0.0 | 0.0 | 0.00 | 0.00 | 0.00 | 91 | 1015.2 |
| 20260831110058 | 79 | 155 | 0.0 | 0.0 | 0.00 | 0.00 | 0.00 | 92 | 1015.2 |
| 20260831110002 | 79 | 155 | 0.0 | 0.0 | 0.00 | 0.00 | 0.00 | 92 | 1015.2 |
| 20260831104559 | 80 | 155 | 0.0 | 0.0 | 0.00 | 0.00 | 0.00 | 91 | 1015.2 |
| 20260831103108 | 80 | 155 | 0.0 | 0.0 | 0.00 | 0.00 | 0.00 | 91 | 1015.1 |
| 20260831101603 | 80 | 155 | 0.0 | 0.0 | 0.00 | 0.00 | 0.00 | 91 | 1015.2 |
| 20260831100058 | 80 | 155 | 0.0 | 0.0 | 0.00 | 0.00 | 0.00 | 91 | 1015.2 |
| 20260831100002 | 80 | 155 | 0.0 | 0.0 | 0.00 | 0.00 | 0.00 | 91 | 1015.2 |
| 20260831094558 | 80 | 155 | 0.0 | 0.0 | 0.00 | 0.00 | 0.00 | 91 | 1015.2 |
| 20260831093059 | 80 | 155 | 0.0 | 0.0 | 0.00 | 0.00 | 0.00 | 91 | 1015.0 |
| 20260831091610 | 80 | 155 | 0.0 | 0.0 | 0.00 | 0.00 | 0.00 | 91 | 1015.1 |
| 20260831090103 | 80 | 155 | 0.0 | 1.0 | 0.00 | 0.00 | 0.00 | 91 | 1015.0 |
| 20260831084559 | 80 | 155 | 0.0 | 2.0 | 0.00 | 0.00 | 0.00 | 90 | 1015.2 |
| 20260831083059 | 80 | 155 | 0.0 | 2.0 | 0.00 | 0.00 | 0.00 | 90 | 1015.2 |
| 20260831081557 | 81 | 155 | 0.0 | 2.0 | 0.00 | 0.00 | 0.00 | 90 | 1015.1 |
| 20260831074558 | 81 | 155 | 0.0 | 2.0 | 0.00 | 0.00 | 0.00 | 90 | 1015.3 |
| 20260831073058 | 81 | 155 | 1.0 | 3.0 | 0.00 | 0.00 | 0.00 | 90 | 1015.3 |
| 20260831071558 | 81 | 155 | 0.0 | 2.0 | 0.00 | 0.00 | 0.00 | 90 | 1015.4 |
| 20260831070059 | 81 | 155 | 0.0 | 5.0 | 0.00 | 0.00 | 0.00 | 89 | 1015.4 |
| 20260831064559 | 81 | 153 | 0.0 | 3.0 | 0.00 | 0.00 | 0.00 | 89 | 1015.5 |
| 20260831063058 | 82 | 153 | 1.0 | 2.0 | 0.00 | 0.00 | 0.00 | 89 | 1015.7 |
| 20260831061558 | 82 | 152 | 0.0 | 2.0 | 0.00 | 0.00 | 0.00 | 89 | 1015.6 |
| 20260831054610 | 82 | 152 | 1.0 | 2.0 | 0.00 | 0.00 | 0.00 | 88 | 1015.6 |
| 20260831053059 | 82 | 150 | 1.0 | 2.0 | 0.00 | 0.00 | 0.00 | 88 | 1015.5 |
| 20260831051600 | 82 | 150 | 0.0 | 3.0 | 0.00 | 0.00 | 0.00 | 87 | 1015.5 |
| 20260831050058 | 83 | 150 | 0.0 | 2.0 | 0.00 | 0.00 | 0.00 | 87 | 1015.5 |
| 20260831050005 | 83 | 150 | 0.0 | 2.0 | 0.00 | 0.00 | 0.00 | 87 | 1015.5 |
| 20260831043101 | 83 | 153 | 0.0 | 2.0 | 0.00 | 0.00 | 0.00 | 86 | 1015.3 |
| 20260831041625 | 84 | 151 | 0.0 | 2.0 | 0.00 | 0.00 | 0.00 | 85 | 1015.4 |
| 20260831040058 | 84 | 152 | 0.0 | 5.0 | 0.00 | 0.00 | 0.00 | 84 | 1015.2 |
| 20260831033058 | 85 | 138 | 0.0 | 3.0 | 0.00 | 0.00 | 0.00 | 83 | 1014.9 |
| 20260831031609 | 85 | 169 | 2.0 | 3.0 | 0.00 | 0.00 | 0.00 | 82 | 1014.8 |
| 20260831030115 | 85 | 162 | 0.0 | 2.0 | 0.00 | 0.00 | 0.00 | 81 | 1014.7 |
| 20260831024558 | 86 | 162 | 1.0 | 4.0 | 0.00 | 0.00 | 0.00 | 79 | 1014.4 |
| 20260831023059 | 87 | 41 | 0.0 | 3.0 | 0.00 | 0.00 | 0.00 | 78 | 1014.2 |
| 20260831021558 | 87 | 176 | 0.0 | 2.0 | 0.00 | 0.00 | 0.00 | 77 | 1014.0 |
| 20260831020059 | 88 | 165 | 0.0 | 6.0 | 0.00 | 0.00 | 0.00 | 76 | 1013.8 |